Temperature
25 26 26 27 27 27 27 27 27 28 28 27 27 26 26 26 25 24 24 23 22 21 20 19 18 18 17 17 17 16 16 16 16 15 15 15 15 15 15 15 15 15 14 14
25 26 27 28 27 27 27 27 27 27 27 27 27 26 27 26 25 24 24 23 22 21 20 19 18 17 17 17 17 16 16 16 15 15 15 15 15 15 15 15 15 14 14 14
26 27 27 27 27 26 27 27 27 27 27 27 26 26 26 26 25 24 23 23 22 21 20 19 18 17 17 17 16 16 16 16 15 15 15 15 15 15 15 15 14 14 14 14
27 27 27 27 27 27 26 28 27 27 26 27 26 26 26 26 25 24 23 23 22 21 20 19 18 18 17 17 16 16 16 15 15 15 14 14 14 14 15 14 14 14 14 14
27 27 27 26 27 27 27 27 27 27 26 26 27 26 27 26 25 25 24 23 22 21 20 19 19 18 17 17 16 16 15 15 15 15 14 14 14 14 14 14 14 14 14 13
27 27 27 27 27 27 27 27 26 26 27 25 26 26 26 27 26 26 24 23 22 21 20 19 18 18 17 16 16 16 15 15 15 15 14 14 14 14 14 14 14 14 14 13
26 27 27 27 27 27 26 26 25 25 26 26 26 26 26 27 26 25 24 23 22 20 20 19 18 18 17 16 16 15 15 15 15 14 14 14 14 14 14 14 14 14 13 13
26 26 27 27 27 26 26 26 25 25 26 27 26 26 27 26 25 24 23 22 21 20 20 19 18 17 17 16 16 15 15 15 14 14 14 14 14 14 14 14 14 13 13 13
26 26 27 27 27 27 26 27 27 26 26 26 26 26 26 25 24 24 23 22 21 20 19 19 18 17 17 16 15 15 15 15 14 14 14 14 14 14 14 14 13 13 13 13
27 26 27 27 26 26 27 27 26 26 24 25 26 26 26 25 25 24 23 22 21 20 19 19 18 17 16 16 15 15 15 14 14 14 14 14 14 14 14 13 13 13 13 13
26 25 26 26 26 26 26 26 26 26 26 25 25 26 27 26 25 24 23 22 21 20 19 18 18 17 16 16 15 15 14 14 14 14 14 13 13 13 13 13 13 13 13 13
25 25 25 26 27 27 26 26 26 25 25 25 25 26 25 25 24 24 23 22 21 20 19 18 18 17 17 16 15 15 15 14 14 14 14 13 13 13 13 13 13 13 13 13
25 24 24 25 25 25 26 26 26 26 25 25 25 25 25 24 23 22 22 21 20 19 19 18 17 17 16 16 15 15 15 15 14 14 14 13 13 13 13 13 13 13 13 13
24 24 24 24 25 26 25 25 25 25 25 25 25 25 25 24 23 22 21 20 20 19 19 18 17 17 16 16 15 15 15 15 14 14 14 13 13 13 13 13 13 13 13 13
23 24 24 25 26 25 25 25 25 25 25 25 25 25 25 24 23 22 21 20 19 19 19 18 17 17 16 15 15 15 15 15 14 14 14 13 13 13 13 13 13 13 13 13
23 23 24 24 25 25 25 25 25 25 25 25 25 24 24 23 22 21 20 20 19 19 18 18 17 17 16 15 15 15 14 14 14 14 14 14 13 13 13 13 13 13 13 13
23 22 23 23 24 24 24 25 25 24 24 24 24 24 23 22 21 20 20 19 19 18 18 17 17 16 16 15 15 15 14 14 14 14 14 13 13 13 13 13 13 13 13 13
21 22 23 23 23 22 24 25 24 24 23 23 23 23 22 21 20 19 19 19 18 18 17 17 16 16 15 15 15 15 14 14 14 14 14 13 13 13 13 13 13 13 13 13
21 21 22 22 23 23 23 23 23 23 22 23 22 22 21 20 20 20 18 18 17 17 16 16 15 15 15 15 15 14 14 14 14 14 13 13 13 13 13 13 13 13 12 12
20 21 22 22 22 22 22 22 22 23 22 21 21 21 20 20 21 20 17 17 17 16 15 15 15 15 15 14 14 14 14 14 14 13 13 13 13 13 13 13 13 12 12 12
20 20 21 21 22 22 21 21 22 21 21 19 19 19 19 20 20 18 16 16 16 15 15 15 15 15 14 14 14 14 14 14 14 13 13 13 13 13 13 13 13 12 12 12
20 21 21 21 21 20 19 20 20 19 18 18 18 18 18 17 17 16 16 16 15 15 15 15 15 14 14 14 14 14 14 14 13 13 13 13 13 13 13 13 12 12 12 12
19 19 20 20 19 18 17 18 17 17 17 17 17 17 16 16 16 16 15 15 15 15 14 14 14 14 14 14 14 14 13 13 13 13 13 13 13 13 13 12 12 12 12 12
18 17 18 18 18 17 17 16 16 16 16 16 16 16 16 16 16 15 15 15 14 14 14 14 14 14 14 13 13 13 13 13 13 13 13 12 12 12 12 12 12 12 12 12
16 17 17 17 17 16 16 15 15 15 15 15 15 15 15 15 15 15 14 14 14 14 14 13 14 14 13 13 13 13 13 13 12 12 12 12 12 12 12 12 12 12 12 12
15 15 15 16 15 15 15 14 14 14 14 14 14 14 14 14 14 14 14 13 13 13 13 13 13 13 13 13 13 12 12 12 12 12 12 12 12 12 12 12 12 12 11 11
Wind_Speed
10 12 12 10 11 11 10 10 9 7 4 7 9 9 8 9 9 10 10 10 10 10 9 9 9 8 8 7 6 6 6 6 5 4 4 4 4 4 3 3 3 4 4 4
11 14 13 10 10 11 12 12 10 6 5 7 8 9 8 9 10 10 10 10 10 10 10 10 9 9 9 8 7 7 6 6 6 4 4 4 4 3 3 3 3 4 4 4
16 9 8 11 11 11 12 12 10 7 5 8 8 10 10 9 10 9 10 10 10 11 11 11 10 10 9 8 8 6 6 6 6 5 4 3 3 3 3 3 3 4 4 4
13 12 11 12 12 11 11 9 10 9 9 8 7 9 7 8 9 9 10 10 11 11 11 11 11 10 9 8 8 7 6 6 6 6 5 5 4 4 4 4 3 4 5 5
10 10 12 13 12 11 9 6 9 10 11 10 10 10 6 7 8 9 9 10 11 11 11 11 11 10 9 8 7 7 6 5 6 6 6 5 5 4 3 4 4 4 4 5
12 9 10 11 10 10 7 7 8 9 10 12 9 9 7 5 6 6 8 9 10 10 10 10 9 9 8 8 7 7 6 6 5 5 5 5 5 4 4 4 5 5 4 5
11 12 11 10 10 10 11 10 7 8 9 8 5 8 7 2 3 5 6 8 9 10 10 10 10 9 9 8 7 7 6 6 5 5 5 5 5 5 5 5 5 5 5 5
10 11 11 11 11 9 12 13 9 7 8 6 5 7 3 1 1 3 5 7 8 9 9 9 10 9 9 9 8 7 6 5 5 5 4 4 5 5 4 4 4 5 4 4
8 9 8 9 9 11 12 12 10 11 11 9 6 5 4 3 4 5 6 8 9 9 9 8 8 8 8 8 8 7 6 5 5 5 4 4 4 4 4 4 5 4 3 4
7 8 8 9 8 10 11 10 8 10 8 9 7 7 4 4 5 6 7 9 9 8 8 8 8 8 7 7 7 6 6 5 4 4 4 3 4 4 4 4 4 4 4 4
8 8 8 10 10 11 11 11 10 9 9 8 7 4 0 2 4 6 7 8 9 9 8 8 7 7 7 7 7 6 6 5 5 4 4 3 4 4 4 4 4 4 4 5
7 7 9 10 8 8 11 11 11 10 9 9 9 4 4 1 2 4 6 8 8 8 8 8 7 7 7 7 6 6 6 5 5 4 4 4 4 4 4 4 4 4 4 5
5 6 8 9 9 9 10 11 11 10 8 9 10 4 4 3 2 3 6 7 7 8 8 8 8 7 7 6 6 6 6 5 5 5 5 4 4 4 4 4 4 4 4 5
5 8 11 11 8 8 10 11 12 12 10 10 11 8 3 0 2 3 5 6 7 7 7 8 8 7 7 7 6 6 6 5 5 5 5 5 4 4 5 5 4 4 5 5
6 9 11 11 9 9 10 11 12 13 13 12 9 8 5 2 2 3 5 6 6 7 7 7 7 7 7 7 6 6 6 5 5 5 5 5 4 4 5 4 4 4 4 5
6 8 9 10 10 10 10 11 12 12 11 10 9 6 2 0 2 3 4 6 6 6 6 6 6 6 7 7 6 6 6 5 5 5 5 4 4 4 4 4 4 4 4 4
7 7 8 9 8 10 12 10 10 9 8 7 7 4 1 2 2 3 3 4 5 5 5 5 5 5 6 6 6 6 5 5 4 4 4 4 4 4 4 4 3 3 4 4
8 8 7 7 8 12 5 4 6 7 5 5 4 2 2 2 2 2 2 2 3 3 4 4 4 4 4 5 5 5 5 5 4 4 4 4 5 4 4 4 4 4 4 4
9 8 6 7 10 9 4 4 6 6 5 2 2 2 2 2 3 4 3 2 2 1 1 2 3 4 4 4 4 5 5 5 4 4 4 4 4 4 4 4 3 3 3 4
7 8 8 9 10 8 2 1 2 5 5 1 1 3 3 4 4 3 3 1 2 1 1 2 3 4 4 4 4 5 4 4 3 3 4 4 4 4 4 4 3 3 4 4
7 7 10 10 9 4 4 2 3 6 1 2 1 2 4 3 2 2 2 2 2 2 1 2 3 4 4 4 4 4 4 3 3 3 3 3 4 4 4 3 3 3 4 4
5 6 7 7 8 3 5 2 1 3 4 1 1 1 1 1 3 3 2 2 2 1 1 1 2 3 3 4 4 4 3 3 3 3 3 3 3 3 3 3 3 4 4 5
2 3 3 2 1 4 2 2 4 3 2 1 0 1 2 2 2 2 2 1 1 1 1 1 2 2 3 3 3 3 3 3 3 3 3 3 3 3 3 3 4 4 4 4
0 3 2 1 1 3 3 4 5 4 2 1 1 1 2 2 2 2 1 1 0 0 0 1 2 2 2 2 2 3 3 3 4 3 3 4 4 3 3 3 4 4 4 4
3 2 3 2 2 3 4 5 5 4 3 3 2 2 2 3 2 2 1 1 1 1 1 1 2 2 2 2 2 2 2 3 3 4 4 4 4 4 3 4 3 4 3 3
2 2 3 3 3 3 3 4 4 3 3 2 2 2 2 2 2 2 1 1 1 1 1 1 1 1 1 2 2 2 3 3 4 4 4 4 4 3 4 4 4 3 3 3
Wind_Direction
201 219 224 225 231 250 255 255 251 246 227 244 249 252 238 217 216 219 215 210 205 197 185 179 179 181 180 180 183 186 189 187 193 195 204 208 212 217 218 218 206 206 213 212
209 225 230 230 231 239 243 247 246 234 219 251 260 259 242 224 223 222 219 214 209 196 185 181 181 183 186 186 187 190 192 191 198 198 209 214 218 223 223 231 214 212 212 213
223 227 218 225 228 233 241 244 250 252 251 242 258 255 231 221 222 222 222 219 210 201 193 186 186 190 191 191 192 193 195 195 200 202 205 203 204 217 216 220 216 214 215 219
229 230 223 227 228 234 245 239 246 246 251 251 241 268 235 217 213 216 219 216 209 201 197 193 191 192 196 195 190 194 196 198 201 203 204 205 213 225 228 224 219 214 214 218
225 219 224 230 231 232 245 247 245 247 251 260 243 258 249 207 226 222 217 214 207 199 196 195 193 191 193 192 189 190 192 199 202 204 204 213 226 234 227 219 212 218 212 215
240 225 229 232 228 223 227 226 233 237 242 246 243 253 258 226 240 226 211 208 200 196 193 191 187 185 187 188 187 186 188 195 198 204 209 215 227 234 232 224 218 219 213 214
227 220 216 218 219 206 215 227 232 228 227 241 213 245 262 248 238 229 216 204 193 193 191 186 183 183 183 186 189 188 187 192 193 199 211 218 227 227 227 230 223 226 220 215
230 223 209 209 220 223 220 230 243 254 255 256 212 243 247 173 216 218 212 200 186 187 188 187 185 184 183 182 184 186 188 190 192 195 210 222 229 232 228 231 234 231 231 223
235 226 197 203 214 228 223 227 248 262 267 267 246 238 219 185 199 195 185 183 180 181 181 182 180 180 180 179 181 184 185 188 193 195 207 220 224 233 234 227 231 228 224 218
239 240 215 195 205 219 241 233 233 243 254 261 253 246 246 190 198 185 179 181 178 177 177 177 175 176 177 177 176 177 179 186 191 195 204 211 217 220 228 230 229 232 224 219
235 234 221 207 217 222 214 220 233 244 250 262 269 266 57 221 204 194 188 181 176 176 175 171 170 175 177 179 178 176 178 184 188 198 204 213 218 221 225 228 228 226 225 218
222 238 234 225 221 229 225 228 227 240 244 250 269 274 83 114 185 194 187 178 173 174 170 168 169 173 179 181 178 178 184 189 190 197 204 209 217 222 228 228 228 222 221 221
206 226 228 217 201 201 219 223 230 240 250 251 258 252 110 119 149 178 181 175 172 171 171 171 172 177 180 179 179 180 186 190 192 197 202 203 213 218 226 230 229 226 220 219
220 235 243 243 238 221 226 227 227 236 245 252 256 267 253 159 181 174 171 172 173 176 176 176 178 180 180 179 180 185 190 190 196 201 204 207 212 214 220 224 225 229 226 222
221 240 246 253 249 239 238 234 228 234 245 257 263 266 275 269 222 177 170 171 176 180 180 179 182 182 183 182 184 187 192 193 200 206 210 212 211 212 218 221 226 232 229 225
221 242 244 244 235 234 237 233 229 231 240 247 257 265 315 256 170 159 170 179 188 189 187 184 181 181 184 184 184 183 191 195 201 209 210 208 211 212 215 217 220 224 225 226
218 222 234 244 229 232 234 227 225 224 230 241 252 261 196 184 175 167 167 185 196 194 191 189 182 183 184 185 186 190 192 193 199 207 208 204 206 209 213 216 216 217 219 220
226 226 231 243 229 234 217 195 215 218 223 240 253 245 210 200 168 155 152 176 183 194 192 189 183 178 180 184 185 194 194 192 198 203 209 207 205 207 210 213 218 217 220 225
220 220 231 234 239 236 196 191 206 214 226 236 241 218 178 143 174 145 108 110 128 179 212 201 187 180 179 178 178 185 192 195 199 202 209 209 209 211 214 219 221 221 222 229
200 218 232 236 244 243 229 153 220 214 215 82 234 203 184 187 218 152 109 95 88 119 176 195 177 170 171 172 175 175 179 183 196 207 215 209 206 211 218 225 226 223 225 231
202 213 227 235 241 231 49 73 198 218 267 24 269 208 197 216 327 106 138 125 101 101 118 158 167 171 165 166 172 175 179 187 201 208 211 204 206 211 216 222 225 229 231 234
232 227 222 232 237 218 52 97 214 353 22 47 317 199 181 85 90 115 126 128 124 123 124 134 158 159 158 169 180 188 192 198 204 203 204 201 206 217 207 212 226 234 240 235
259 311 283 268 290 60 75 24 358 1 13 11 121 130 128 136 131 118 124 138 143 170 161 182 182 165 152 168 186 200 206 208 205 197 200 205 206 214 220 225 229 233 233 247
308 347 299 277 56 25 22 19 11 7 4 27 91 115 133 138 134 124 117 120 122 132 187 209 195 177 170 183 191 207 214 212 205 204 207 211 207 214 218 238 240 245 246 248
320 307 296 275 342 356 10 14 10 13 38 63 75 96 105 121 125 113 97 74 48 16 332 257 224 212 205 201 206 218 220 212 212 213 217 220 214 214 221 226 236 243 247 262
307 309 291 295 316 303 310 342 2 31 55 73 77 70 85 107 120 113 96 57 16 341 312 284 259 238 238 229 222 223 223 213 218 219 220 224 223 219 227 228 219 187 220 179
Height
1490 1488 1483 1480 1479 1479 1479 1480 1481 1479 1478 1481 1482 1482 1482 1485 1487 1489 1491 1493 1496 1498 1501 1503 1505 1507 1508 1509 1511 1512 1513 1514 1515 1516 1517 1518 1519 1519 1519 1520 1519 1520 1520 1520
1486 1482 1476 1476 1477 1479 1479 1481 1478 1476 1477 1480 1479 1479 1477 1480 1483 1485 1487 1490 1493 1496 1499 1501 1503 1504 1505 1507 1508 1509 1511 1512 1513 1513 1514 1515 1516 1517 1517 1517 1517 1517 1518 1518
1478 1473 1474 1476 1477 1479 1477 1477 1476 1477 1476 1477 1480 1478 1475 1476 1480 1483 1485 1487 1489 1492 1495 1498 1500 1502 1503 1504 1505 1507 1508 1509 1510 1511 1513 1513 1514 1514 1515 1515 1515 1515 1515 1516
1472 1470 1473 1474 1474 1475 1476 1470 1472 1475 1478 1475 1477 1481 1471 1470 1475 1478 1481 1483 1485 1489 1492 1494 1497 1499 1500 1502 1503 1504 1505 1506 1507 1509 1510 1510 1511 1512 1512 1512 1513 1513 1513 1513
1467 1467 1470 1471 1470 1470 1470 1468 1470 1471 1474 1476 1472 1477 1469 1467 1471 1472 1476 1479 1482 1486 1488 1491 1494 1496 1498 1499 1501 1502 1503 1504 1505 1506 1507 1508 1509 1510 1510 1510 1510 1510 1510 1510
1463 1465 1466 1466 1466 1468 1468 1471 1471 1470 1470 1480 1470 1475 1469 1462 1465 1466 1471 1475 1479 1483 1486 1488 1491 1494 1495 1497 1498 1499 1500 1501 1502 1503 1504 1505 1506 1506 1507 1507 1507 1507 1508 1508
1463 1461 1462 1464 1466 1467 1468 1473 1479 1479 1477 1473 1465 1471 1466 1458 1461 1464 1468 1472 1476 1480 1483 1486 1488 1490 1492 1494 1495 1497 1497 1498 1499 1500 1501 1502 1502 1503 1504 1504 1504 1504 1505 1505
1463 1463 1457 1459 1461 1464 1465 1467 1477 1483 1476 1466 1465 1467 1457 1457 1461 1465 1468 1471 1475 1478 1481 1483 1486 1488 1490 1492 1493 1494 1495 1496 1497 1497 1498 1499 1499 1501 1501 1501 1502 1502 1502 1502
1457 1458 1453 1455 1457 1459 1462 1461 1457 1466 1465 1469 1462 1458 1455 1458 1460 1463 1467 1470 1473 1476 1478 1481 1484 1486 1488 1490 1491 1492 1493 1494 1494 1495 1496 1496 1497 1498 1498 1499 1499 1499 1499 1500
1451 1458 1452 1453 1457 1458 1456 1456 1461 1465 1476 1475 1464 1459 1455 1455 1457 1460 1464 1468 1471 1474 1477 1479 1482 1484 1486 1488 1489 1490 1491 1492 1492 1493 1493 1494 1495 1495 1496 1496 1496 1496 1496 1497
1450 1457 1455 1453 1455 1455 1458 1459 1458 1457 1458 1469 1471 1461 1448 1451 1454 1457 1461 1465 1469 1472 1474 1477 1480 1482 1484 1486 1487 1488 1489 1490 1490 1491 1491 1492 1492 1493 1493 1494 1494 1494 1494 1494
1451 1452 1454 1450 1447 1448 1450 1452 1455 1464 1463 1460 1462 1459 1449 1451 1454 1457 1461 1465 1468 1471 1473 1476 1478 1480 1482 1484 1485 1485 1486 1487 1488 1489 1489 1490 1490 1490 1491 1491 1491 1491 1491 1492
1451 1455 1460 1456 1453 1451 1449 1449 1450 1453 1456 1458 1461 1457 1450 1452 1455 1458 1461 1464 1467 1470 1472 1475 1477 1479 1480 1482 1483 1483 1484 1486 1487 1487 1488 1488 1488 1488 1488 1489 1489 1489 1489 1490
1452 1451 1453 1455 1448 1444 1448 1448 1449 1452 1454 1455 1452 1450 1448 1452 1455 1458 1461 1463 1466 1469 1471 1473 1475 1477 1479 1480 1481 1482 1483 1484 1485 1485 1486 1486 1486 1486 1487 1487 1487 1487 1487 1487
1450 1449 1446 1442 1439 1441 1444 1445 1447 1449 1448 1451 1448 1447 1447 1451 1454 1457 1460 1463 1465 1467 1469 1471 1473 1475 1477 1478 1479 1480 1481 1482 1483 1483 1484 1484 1484 1484 1485 1485 1485 1485 1485 1485
1448 1447 1445 1444 1439 1440 1443 1442 1443 1445 1445 1445 1446 1447 1448 1452 1455 1457 1460 1462 1464 1466 1468 1469 1471 1473 1474 1475 1476 1478 1479 1480 1481 1481 1482 1483 1483 1483 1483 1483 1483 1483 1483 1483
1445 1447 1448 1445 1439 1441 1444 1439 1440 1443 1443 1445 1447 1448 1450 1452 1455 1457 1459 1461 1463 1465 1466 1468 1469 1471 1472 1473 1474 1476 1477 1477 1478 1479 1480 1480 1481 1481 1481 1481 1481 1481 1481 1481
1447 1447 1444 1443 1446 1454 1440 1434 1437 1441 1443 1444 1445 1447 1450 1453 1456 1458 1460 1461 1462 1464 1465 1466 1468 1469 1470 1471 1473 1474 1475 1475 1476 1476 1477 1478 1479 1479 1480 1479 1479 1479 1479 1479
1445 1445 1443 1444 1445 1441 1439 1437 1438 1442 1444 1445 1447 1449 1451 1454 1455 1457 1460 1461 1462 1464 1464 1465 1466 1467 1469 1470 1471 1472 1473 1473 1474 1474 1475 1476 1477 1477 1478 1478 1477 1477 1477 1477
1443 1443 1443 1442 1447 1447 1441 1438 1439 1442 1446 1447 1448 1450 1451 1453 1451 1455 1459 1460 1462 1463 1463 1464 1465 1466 1467 1468 1469 1470 1471 1471 1472 1472 1473 1474 1474 1475 1475 1475 1475 1475 1475 1475
1442 1442 1441 1441 1442 1439 1441 1441 1441 1448 1448 1449 1450 1451 1452 1452 1453 1457 1459 1460 1461 1462 1462 1463 1464 1465 1465 1466 1467 1468 1469 1469 1470 1471 1471 1472 1472 1473 1473 1473 1473 1473 1474 1474
1440 1439 1440 1439 1443 1447 1446 1444 1446 1449 1449 1450 1451 1452 1453 1454 1455 1457 1458 1459 1460 1461 1461 1462 1462 1463 1464 1465 1466 1466 1467 1467 1468 1469 1469 1469 1470 1471 1471 1471 1471 1472 1472 1472
1443 1444 1440 1441 1446 1448 1448 1449 1450 1450 1450 1451 1451 1453 1454 1454 1455 1457 1458 1458 1459 1460 1461 1461 1461 1462 1462 1463 1463 1464 1465 1465 1466 1466 1467 1467 1468 1468 1469 1469 1469 1469 1469 1469
1446 1448 1446 1446 1446 1449 1450 1450 1451 1451 1451 1452 1452 1453 1454 1455 1456 1457 1458 1458 1459 1459 1459 1460 1460 1461 1461 1461 1461 1462 1462 1463 1463 1464 1464 1465 1466 1466 1466 1466 1467 1467 1467 1467
1450 1450 1448 1447 1449 1450 1450 1451 1451 1451 1451 1452 1452 1453 1454 1455 1456 1456 1457 1457 1458 1458 1458 1458 1458 1459 1459 1459 1459 1460 1460 1460 1461 1462 1462 1463 1464 1464 1464 1464 1464 1464 1464 1465
1452 1453 1452 1450 1452 1452 1452 1452 1452 1452 1452 1452 1453 1453 1454 1455 1455 1456 1456 1457 1457 1457 1457 1457 1457 1457 1457 1457 1457 1457 1458 1458 1459 1460 1460 1461 1461 1461 1462 1462 1462 1461 1462 1461